Tracking 31027 objects as of 19-Jul-2025
HD Live streaming from Space Station
objects crossing your sky now

STARLINK-31235

Track STARLINK-31235 now!
10-day predictions
STARLINK-31235 is classified as:


NORAD ID: 59038
Int'l Code: 2024-038R
Perigee: 489.4 km
Apogee: 490.9 km
Inclination: 43.0 °
Period: 94.3 minutes
Semi major axis: 6861 km
RCS: Unknown
Launch date: February 25, 2024
Source: United States (US)
Launch site: AIR FORCE EASTERN TEST RANGE (AFETR)
Your satellite tracking list
SPACEBEE-134
Track 1 satellite(s)




NASA's NSSDC Master Catalog

Two Line Element Set (TLE):
1 59038U 24038R   25199.63731750  .00001673  00000-0  70294-4 0  9993
2 59038  43.0021 265.3097 0001082 265.4881  94.5847 15.27586481 79004
Source of the keplerian elements: AFSPC